[[{"header":{"parameterUnit":"m.s-1","parameterCategory":1,"la1":30.2991,"la2":30.254,"lo1":-89.0895,"lo2":-89.0444,"dy":0.0017,"dx":0.0017,"nx":28,"ny":28,"refTime":"2024-06-01T21:00:00:Z","depth":0,"parameterNumber":2,"parameterNumberName":"U-component_of_WINDS"},"data":[0,0,0,0,0,0,0,0,0,0,0,0,0,0,0,0,0,0,0,0,0,0,0,0,0,0,0,0,0,0,0,0,0,0,0,0,0,0,0,0,0,0,0,0,0,0,0,0,0,0,0,0,0,0,0,0,0,0,-0.4916,-0.4918,0,-0.5059,-0.5061,-0.5063,-0.5188,-0.5189,-0.5191,-0.5192,-0.5347,-0.5349,-0.5352,0,0,0,0,0,0,0,0,0,0,0,0,0,-0.476,-0.4763,-0.4916,-0.4918,-0.492,-0.5059,-0.5061,-0.5063,-0.5188,-0.5189,-0.5191,-0.5193,-0.5346,-0.5349,-0.5352,0,0,0,0,0,0,0,0,0,0,0,0,0,-0.4858,-0.4763,-0.4916,-0.4999,-0.5007,-0.5059,-0.5061,-0.5064,-0.5187,-0.5189,-0.5192,-0.5194,-0.5345,-0.5349,-0.5353,-0.5336,0,0,-0.5366,-0.5368,0,0,0,0,0,0,0,0,-0.4853,-0.4864,-0.4985,-0.4993,-0.5003,-0.5108,-0.5063,-0.5155,-0.5187,-0.5119,-0.5192,-0.5195,-0.5266,-0.5277,-0.5299,-0.5344,-0.535,-0.5366,-0.5369,-0.537,-0.5372,0,0,0,0,0,0,0,-0.4846,-0.4859,-0.4973,-0.4986,-0.4998,-0.5032,-0.5048,-0.5081,-0.5179,-0.5125,-0.5135,-0.515,-0.5272,-0.5295,-0.5304,-0.5353,-0.5366,-0.537,-0.5372,-0.5374,-0.5395,-0.5393,0,0,0,0,0,0,-0.4825,-0.4852,-0.4969,-0.4978,-0.4931,-0.5033,-0.5051,-0.5072,-0.5179,-0.5197,-0.5148,-0.5155,-0.5287,-0.5299,-0.531,-0.5299,-0.537,-0.5374,-0.5377,-0.5397,-0.5394,-0.5392,0,0,0,0,0,0,-0.4821,-0.4834,-0.4963,-0.4917,-0.4936,-0.5033,-0.5056,-0.5074,-0.5097,-0.5196,-0.5215,-0.5153,-0.5289,-0.5304,-0.5329,-0.5306,-0.5376,-0.538,-0.5399,-0.5396,-0.5393,-0.5276,0,0,0,0,0,0,-0.4816,-0.4832,-0.4824,-0.4916,-0.4938,-0.4976,-0.5055,-0.5075,-0.5103,-0.5114,-0.5206,-0.5223,-0.5292,-0.5322,-0.5333,-0.5313,-0.5383,-0.5401,-0.5398,-0.5394,-0.5282,-0.5269,-0.5258,0,0,0,0,0,-0.481,-0.4787,-0.4823,-0.4836,-0.493,-0.4974,-0.4988,-0.5064,-0.5101,-0.5095,-0.516,-0.522,-0.5307,-0.5324,-0.5337,-0.5318,-0.5403,-0.5399,-0.5394,-0.5288,-0.5272,-0.5259,0,0,0,0,0,0,-0.4691,-0.48,-0.4842,-0.4846,-0.49,-0.4995,-0.4991,-0.5045,-0.5091,-0.51,-0.5196,-0.5216,-0.5231,-0.5278,-0.5294,-0.531,-0.5364,-0.5362,-0.5278,-0.5264,-0.5252,-0.524,-0.5387,0,0,0,0,0,-0.4665,-0.4689,-0.4785,-0.478,-0.4805,-0.4892,-0.4915,-0.497,-0.503,-0.5054,-0.512,-0.5179,-0.522,-0.5245,-0.5288,-0.5291,-0.5314,-0.5285,-0.5273,-0.5262,-0.5259,-0.5267,-0.5256,-0.5378,-0.5378,-0.5378,0,0,-0.4612,-0.4675,-0.4685,-0.4758,-0.4806,-0.4831,-0.4911,-0.4934,-0.4956,-0.5059,-0.5086,-0.5136,-0.5209,-0.5223,-0.5233,-0.5263,-0.5231,-0.5257,-0.5248,-0.5251,-0.5261,-0.525,-0.5239,-0.5375,-0.5375,-0.5376,0,0,-0.4529,-0.4578,-0.458,-0.4626,-0.4697,-0.4757,-0.4757,-0.4845,-0.4882,-0.491,-0.4989,-0.5018,-0.5085,-0.5134,-0.5168,-0.5107,-0.5165,-0.5119,-0.5056,-0.5062,-0.5052,-0.5044,-0.5024,-0.5015,-0.5116,-0.5115,-0.5115,0,-0.4455,-0.4494,-0.4575,-0.4594,-0.4625,-0.4718,-0.4723,-0.4765,-0.4848,-0.4869,-0.49,-0.4989,-0.5044,-0.5072,-0.5057,-0.5081,-0.5087,-0.5108,-0.5047,-0.504,-0.5033,-0.5015,-0.5007,-0.5109,-0.511,-0.511,-0.5111,0,-0.44,-0.4427,-0.4421,-0.4495,-0.4526,-0.4538,-0.4624,-0.4646,-0.4699,-0.4756,-0.4786,-0.4856,-0.4916,-0.4927,-0.498,-0.4964,-0.498,-0.5028,-0.5084,-0.5014,-0.4999,-0.4992,-0.51,-0.5102,-0.5104,-0.5106,0,0,-0.4244,-0.4364,-0.4361,-0.4397,-0.4483,-0.4507,-0.4525,-0.4581,-0.4599,-0.4654,-0.4674,-0.473,-0.4775,-0.4814,-0.4874,-0.4879,-0.4828,-0.4927,-0.4931,-0.4907,-0.4818,-0.4781,-0.4771,-0.4868,-0.4867,-0.4866,-0.4812,0,-0.4175,-0.4209,-0.4283,-0.4295,-0.4322,-0.4413,-0.4429,-0.4486,-0.4541,-0.4575,-0.4637,-0.4675,-0.4732,-0.4756,-0.4765,-0.4832,-0.4812,-0.4837,-0.489,-0.4891,-0.4868,-0.4763,-0.4723,-0.4668,-0.4806,-0.4805,-0.4804,0,-0.4098,-0.4145,-0.4159,-0.4246,-0.426,-0.4272,-0.4332,-0.4362,-0.443,-0.447,-0.4513,-0.4579,-0.4607,-0.4659,-0.4701,-0.4716,-0.4744,-0.478,-0.478,-0.4788,-0.4842,-0.4768,-0.4652,-0.4644,-0.4795,-0.4796,-0.4797,0,-0.3984,-0.4051,-0.4068,-0.4096,-0.4198,-0.4205,-0.4248,-0.4318,-0.4348,-0.4401,-0.4422,-0.4479,-0.451,-0.4554,-0.4635,-0.4665,-0.4669,-0.4727,-0.4705,-0.4703,-0.4701,-0.47,-0.4588,-0.4718,-0.4718,-0.4718,-0.4719,0,-0.3899,-0.3904,-0.4018,-0.4028,-0.4038,-0.4126,-0.4135,-0.4187,-0.4249,-0.4274,-0.4358,-0.4381,-0.4486,-0.4522,-0.4587,-0.4613,-0.4626,-0.4662,-0.4679,-0.4654,-0.4649,-0.4672,-0.4678,-0.4716,-0.4717,-0.4717,-0.4718,0,-0.3771,-0.3848,-0.3873,-0.3967,-0.3991,-0.3994,-0.4077,-0.4093,-0.4153,-0.4184,-0.4197,-0.4293,-0.434,-0.4425,-0.4498,-0.4541,-0.4554,-0.4584,-0.453,-0.454,-0.4514,-0.4515,-0.4413,-0.4405,-0.4539,-0.4537,-0.4536,0,-0.3712,-0.3717,-0.3812,-0.3833,-0.3873,-0.3906,-0.3937,-0.4026,-0.4055,-0.4134,-0.4141,-0.4195,-0.4241,-0.4314,-0.4392,-0.4449,-0.4481,-0.4441,-0.449,-0.4465,-0.4481,-0.4479,-0.4482,-0.4429,-0.4427,-0.4426,-0.4425,0,-0.3598,-0.3636,-0.3675,-0.3728,-0.3761,-0.3808,-0.386,-0.3874,-0.3976,-0.4005,-0.4052,-0.4089,-0.4162,-0.4215,-0.4284,-0.4333,-0.4397,-0.4409,-0.4407,-0.4381,-0.435,-0.4368,-0.45,-0.4411,-0.4412,-0.4413,-0.4414,-0.4414,-0.3504,-0.3513,-0.3581,-0.3623,-0.3671,-0.3718,-0.3737,-0.38,-0.384,-0.3905,-0.3956,-0.4,-0.4073,-0.4171,-0.4217,-0.4256,-0.4285,-0.4282,-0.4282,-0.4279,-0.427,-0.4344,-0.4269,-0.4269,-0.427,-0.427,-0.4271,0,-0.3395,-0.3443,-0.3481,-0.3549,-0.3583,-0.3637,-0.3698,-0.3724,-0.376,-0.3821,-0.3865,-0.3922,-0.3975,-0.4058,-0.4118,-0.4134,-0.4165,-0.4147,-0.4146,-0.4157,-0.424,-0.4235,-0.4121,-0.4121,-0.4121,-0.4121,-0.4121,-0.4121,-0.3342,-0.3362,-0.3408,-0.3455,-0.3505,-0.3546,-0.3576,-0.3621,-0.367,-0.3728,-0.3771,-0.3824,-0.3896,-0.3962,-0.4014,-0.4038,-0.4057,-0.4029,-0.4062,-0.4137,-0.4151,-0.4164,-0.4161,-0.4033,-0.4032,-0.3977,-0.3977,-0.3976]},{"header":{"parameterUnit":"m.s-1","parameterCategory":1,"la1":30.2991,"la2":30.254,"lo1":-89.0895,"lo2":-89.0444,"dy":0.0017,"dx":0.0017,"nx":28,"ny":28,"refTime":"2024-06-01T21:00:00:Z","depth":0,"parameterNumber":3,"parameterNumberName":"V-component_of_WINDS"},"data":[0,0,0,0,0,0,0,0,0,0,0,0,0,0,0,0,0,0,0,0,0,0,0,0,0,0,0,0,0,0,0,0,0,0,0,0,0,0,0,0,0,0,0,0,0,0,0,0,0,0,0,0,0,0,0,0,0,0,6.5914,6.5915,0,6.597,6.5971,6.5971,6.5915,6.5912,6.591,6.5908,6.5959,6.5962,6.5966,0,0,0,0,0,0,0,0,0,0,0,0,0,6.5751,6.5755,6.5914,6.5915,6.5915,6.597,6.5971,6.5972,6.5915,6.5912,6.591,6.5907,6.5958,6.5962,6.5966,0,0,0,0,0,0,0,0,0,0,0,0,0,6.5816,6.5756,6.5914,6.5894,6.5893,6.597,6.5971,6.5972,6.5916,6.5912,6.5909,6.5906,6.5956,6.5961,6.5966,6.6064,0,0,6.5982,6.5984,0,0,0,0,0,0,0,0,6.5812,6.5822,6.5896,6.5896,6.5894,6.5932,6.5932,6.6002,6.5916,6.5907,6.5908,6.5904,6.5952,6.5957,6.5975,6.6066,6.6068,6.5982,6.5985,6.5988,6.5989,0,0,0,0,0,0,0,6.5808,6.5819,6.5936,6.5897,6.5896,6.588,6.5886,6.5945,6.5947,6.5907,6.5903,6.5911,6.5951,6.597,6.5976,6.6069,6.5982,6.5987,6.599,6.5992,6.6242,6.6245,0,0,0,0,0,0,6.5807,6.5816,6.5934,6.5938,6.5845,6.5886,6.5892,6.5923,6.5946,6.5947,6.5914,6.5908,6.5963,6.597,6.5977,6.6091,6.5988,6.5992,6.5995,6.6238,6.6242,6.6246,0,0,0,0,0,0,6.5803,6.5818,6.5932,6.5876,6.5889,6.5892,6.5928,6.5926,6.5945,6.5951,6.5951,6.5934,6.5961,6.597,6.6043,6.6092,6.5995,6.5999,6.6234,6.6239,6.6244,6.6322,0,0,0,0,0,0,6.5799,6.5817,6.5855,6.5877,6.5892,6.5999,6.5931,6.593,6.5955,6.5948,6.597,6.597,6.5959,6.6036,6.6048,6.6098,6.6003,6.6229,6.6236,6.6243,6.6314,6.6329,6.6341,0,0,0,0,0,6.5793,6.5874,6.5858,6.5872,6.5941,6.6002,6.601,6.5998,6.5959,6.5997,6.6001,6.5969,6.6086,6.6044,6.6057,6.6109,6.6226,6.6234,6.6242,6.6308,6.6326,6.6341,0,0,0,0,0,0,6.5854,6.5876,6.5858,6.5949,6.5974,6.5992,6.6039,6.6017,6.6052,6.6043,6.6025,6.603,6.6107,6.6115,6.6068,6.6204,6.6149,6.616,6.6195,6.6212,6.6225,6.622,6.6008,0,0,0,0,0,6.5879,6.5929,6.5944,6.6022,6.6036,6.6036,6.6062,6.605,6.6075,6.6084,6.6094,6.6117,6.6158,6.6186,6.6225,6.6317,6.6319,6.6359,6.6372,6.6383,6.6392,6.644,6.6457,6.6273,6.6273,6.6273,0,0,6.5929,6.5947,6.5979,6.6035,6.6053,6.6103,6.6045,6.61,6.6136,6.6092,6.6161,6.6169,6.6194,6.6276,6.6313,6.6286,6.6444,6.6393,6.6402,6.6405,6.645,6.6467,6.6483,6.6278,6.6277,6.6276,0,0,6.6045,6.6065,6.6132,6.6152,6.6182,6.6181,6.6197,6.6219,6.6223,6.6294,6.6261,6.6303,6.6376,6.6394,6.6413,6.6538,6.651,6.6552,6.662,6.6667,6.6681,6.6694,6.6736,6.6752,6.6561,6.6561,6.6561,0,6.6103,6.6179,6.6168,6.6226,6.625,6.6216,6.6282,6.6302,6.6341,6.6358,6.6328,6.6419,6.6433,6.6518,6.6549,6.6567,6.6582,6.6547,6.668,6.6693,6.6705,6.6745,6.6761,6.6566,6.6565,6.6565,6.6564,0,6.6247,6.63,6.635,6.6392,6.6422,6.6484,6.6481,6.6513,6.6499,6.6501,6.6572,6.6589,6.663,6.665,6.6636,6.6734,6.6716,6.6684,6.6628,6.6727,6.6764,6.678,6.6573,6.6571,6.657,6.6568,0,0,6.64,6.6438,6.6456,6.6474,6.6505,6.6545,6.6604,6.6647,6.6674,6.6703,6.675,6.6814,6.6784,6.6806,6.6795,6.6836,6.6932,6.6798,6.6799,6.6821,6.7038,6.706,6.7078,6.6915,6.6918,6.692,6.7035,0,6.6516,6.6622,6.6614,6.6713,6.6761,6.673,6.6781,6.6805,6.6809,6.6848,6.6852,6.6896,6.6855,6.6868,6.6908,6.6912,6.6975,6.6904,6.6956,6.6958,6.6948,6.7098,6.7121,6.7229,6.705,6.7052,6.7054,0,6.6664,6.6701,6.6805,6.6829,6.6848,6.6895,6.6933,6.6973,6.6998,6.6998,6.7023,6.7005,6.7063,6.7009,6.7087,6.7039,6.706,6.7066,6.7069,6.7071,6.701,6.7101,6.7263,6.7278,6.7077,6.7075,6.7074,0,6.6763,6.6838,6.691,6.6927,6.6957,6.699,6.7004,6.7027,6.7053,6.7086,6.7102,6.7141,6.7162,6.7191,6.7183,6.7145,6.7263,6.7208,6.7262,6.7262,6.7286,6.7284,6.7451,6.7304,6.7304,6.7304,6.7303,0,6.689,6.6955,6.6955,6.6999,6.7069,6.706,6.7129,6.7139,6.7159,6.7203,6.7179,6.7219,6.7208,6.7248,6.7242,6.7307,6.7317,6.7316,6.7313,6.7317,6.7317,6.7328,6.732,6.7308,6.7307,6.7306,6.7306,0,6.7011,6.7015,6.709,6.7114,6.7121,6.7172,6.7191,6.7231,6.7234,6.7289,6.7302,6.7306,6.7351,6.7348,6.7398,6.7395,6.7474,6.7463,6.7466,6.7462,6.7516,6.751,6.7693,6.7716,6.7558,6.7559,6.7561,0,6.7091,6.7141,6.717,6.7199,6.7215,6.7262,6.7289,6.7282,6.7311,6.7344,6.738,6.7424,6.7459,6.7533,6.7539,6.7578,6.7566,6.7628,6.7571,6.7573,6.7564,6.756,6.7564,6.7638,6.764,6.7641,6.7642,0,6.7233,6.7232,6.7274,6.7316,6.735,6.7382,6.7412,6.7436,6.7432,6.7465,6.7513,6.754,6.7593,6.7636,6.7674,6.7685,6.7662,6.7661,6.7675,6.7677,6.7676,6.7675,6.7493,6.7656,6.7654,6.7653,6.7653,6.7652,6.7334,6.7376,6.7403,6.745,6.7472,6.7501,6.754,6.7549,6.7589,6.7633,6.7627,6.768,6.7703,6.7751,6.7767,6.7807,6.7784,6.7805,6.781,6.7814,6.782,6.7673,6.7814,6.7813,6.7813,6.7813,6.7812,0,6.7471,6.7488,6.7532,6.7575,6.7612,6.7591,6.7623,6.7654,6.7702,6.7727,6.7763,6.7817,6.7859,6.787,6.791,6.794,6.793,6.795,6.7946,6.7949,6.7839,6.7821,6.7957,6.7957,6.7957,6.7957,6.7957,6.7957,6.7547,6.7617,6.762,6.7699,6.7715,6.7769,6.7789,6.7814,6.7834,6.7897,6.7933,6.794,6.7959,6.8,6.8038,6.8039,6.8054,6.8078,6.8075,6.7971,6.7957,6.7943,6.7926,6.8082,6.8082,6.8182,6.8183,6.8183]}]]